Regional Weather Roundup
Issued by NWS Upton, NY

Current Version | Previous Version | Text Only | Print | Product List | Glossary Off
Versions: 1 2 3 4 5 6 7 8 9 10 11 12 13 14 15 16 17 18 19 20 21 22 23 24 25 26 27

000
ASUS41 KOKX 250008
RWROKX

REGIONAL WEATHER ROUNDUP
NATIONAL WEATHER SERVICE NEW YORK NY
700 PM EST FRI FEB 24 2017

NOTE: "FAIR" INDICATES FEW OR NO CLOUDS BELOW 12,000 FEET WITH NO
SIGNIFICANT WEATHER AND/OR OBSTRUCTIONS TO VISIBILITY.

NYZ071-072-176-178-NJZ106-104-250100-
NEW YORK CITY METRO AREA

CITY           SKY/WX    TMP DP  RH WIND       PRES   REMARKS
Central Park   PTCLDY    63  52  67 S6        29.88S
Wall St Helipt NOT AVBL
LaGuardia APRT PTCLDY    62  53  72 S13       29.86R
Kennedy INTL   PTCLDY    53  53 100 S21       29.88S
Breezy Point     N/A     46 N/A N/A S16         N/A
Newark/Liberty PTCLDY    65  53  65 S7        29.85R
Teterboro      PTCLDY    65  54  67 S13       29.84R
$$

NYZ177-179-078>081-250100-
LONG ISLAND NEW YORK

CITY           SKY/WX    TMP DP  RH WIND       PRES   REMARKS
Jones Beach      N/A     48 N/A N/A S12         N/A
Matinecock PT  NOT AVBL
Farmingdale    PTCLDY    53  51  93 SW10      29.90R
MacArthur/ISP  PTCLDY    52  52 100 S10       29.90S
Shirley        CLEAR     52  52 100 SW3       29.92S
Westhampton    CLEAR     52  50  93 S8        29.92F
Southampton    NOT AVBL
Bridgehampton  NOT AVBL
East Hampton   CLOUDY    51  49  96 SW8       29.92F
Montauk          N/A     51  50  96 S7        29.94S
$$

NYZ052-065-067-250100-
HUDSON VALLEY

CITY           SKY/WX    TMP DP  RH WIND       PRES   REMARKS
White Plains   CLEAR     59  53  80 S12       29.86S
Newburgh       PTCLDY    63  54  72 S12       29.84S
Montgomery     CLEAR     63  52  67 SE5       29.81R
Poughkeepsie   PTCLDY    63  52  67 VRB6      29.82R
Albany         CLOUDY    68  50  52 S12G24    29.77R
$$

NJZ001-105-106-008-010-013-015-019>022-104-250100-
NEW JERSEY

CITY           SKY/WX    TMP DP  RH WIND       PRES   REMARKS
Newark/Liberty PTCLDY    65  53  65 S7        29.85R
Teterboro      PTCLDY    65  54  67 S13       29.84R
Caldwell       PTCLDY    66  53  63 S8        29.84S
Somerville     CLEAR     67  52  58 S8        29.82R
Linden           N/A     65  52  61 S10       29.85S
Sussex         CLEAR     66  52  60 S6        29.83R
Andover          N/A     65  51  60 S5        29.83R
Trenton        CLEAR     66  54  65 S13       29.84S
Millville      PTCLDY    59  59 100 S9G18     29.87F
Atlantic City  CLOUDY    57  54  89 S8        29.89F
Wrightstown    NOT AVBL
Toms River     CLEAR     60  56  86 S9        29.89S
Belmar         PTCLDY    58  54  86 S6        29.89S
$$

PAZ047>061-062-071-250100-
EASTERN PENNSYLVANIA

CITY           SKY/WX    TMP DP  RH WIND       PRES   REMARKS
Philadelphia   PTCLDY    64  55  72 SE8       29.85S
Allentown      CLEAR     67  51  56 S7        29.82R
Scranton       CLEAR     67  50  54 S8        29.79R
$$

CTZ002-004>006-009-010-012-RIZ004-006-007-MAZ004-011-015-250100-
SOUTHERN NEW ENGLAND
 IN CT

CITY           SKY/WX    TMP DP  RH WIND       PRES   REMARKS
Bradley INTL   CLOUDY    62  52  69 S12       29.87S
Hartford       CLEAR     60  52  74 S8        29.88R
Danbury        CLEAR     60  52  74 S12G21    29.87S
Wtrbury/Oxford PTCLDY    57  48  72 S12G18    29.89S
Bridgeport     MOCLDY    54  49  83 W3        29.89S
Meriden        PTCLDY    59  51  75 S7        29.89S
New Haven      PTCLDY    50  47  89 CALM      29.90S
Chester          N/A     55  54  94 S6        29.91S
Groton         MOCLDY    47  45  93 S3        29.92R
Wilimantic     CLEAR     61  54  77 S9        29.91R

 IN RI

CITY           SKY/WX    TMP DP  RH WIND       PRES   REMARKS
Providence     PTCLDY    50  47  89 SE6       29.93R
Block Island   MOCLDY    50  49  96 S14       29.94S
Westerly       CLEAR     51  46  83 SW3       29.93S
 IN MA

CITY           SKY/WX    TMP DP  RH WIND       PRES   REMARKS
Boston         PTCLDY    59  52  77 S15       29.90R
Worcester      CLEAR     59  50  72 S13       29.89R
Westfield      CLEAR     60  53  77 S10       29.85R
Provincetown   CLEAR     46  44  93 S9        29.94R
Nantucket      CLEAR     48  45  89 S13       29.97S
$$

ANZ330-335-338-340-345-350-353-355-250100-
COASTAL MARINE OBSERVATIONS


STATION/POSITION TIME  SKY/WX   TEMP    WIND        PRES    VSBY  WAVE
                                AIR SEA DIR/SP/G                  HT/PER
                 (UTC)          (F)     (DEG/KT/KT) (MB)    (MI)  (FT/S)
NY HARB ENTRANCE 2250            48 44  180/ 12/ 14 1011.8          3/13
20 S FIRE ISLAND 2350            48 44  160/ 12/ 12 1012.5          3/11
GREAT SOUTH BAY  NOT AVBL
23 SSW MONTAUK P 2250            49 44              1013.9          3/11
15 E BARNEGAT LI 2330               44                N/A           3/11
HUDSON CANYON    2250               48              1013.7          3/11
KINGS POINT      2348            54 42              1011.1
EXECUTION ROCKS  NOT AVBL
CENTRAL LI SOUND 2315            48     180/ 10/ 12   N/A           1/ 2
EASTERN LI SOUND NOT AVBL
ROBBINS REEF     2348            56     170/ 16/ 17 1011.2
$$


>>>>>>>>>>>>>>>>>>>>>>>>>>>> KEY <<<<<<<<<<<<<<<<<<<<<<<<<<<
>                                                          <
>     SKY/WX - Sky Condition/Present Weather               <
>     TMP    - Temperature in Fahrenheit                   <
>     DP     - Dew Point in Fahrenheit                     <
>     RH     - Relative Humidity in Percent                <
>     WIND   - Direction (from) and Speed in MPH           <
>     PRES   - Mean Sea Level Pressure (inches of Hg)      <
>     WCI    - Wind Chill Index                            <
>     VSB    - VISIBILITY IN MILES                         <
>     HX     - HEAT INDEX                                  <
>     TC     - TEMPERATURE IN CELSIUS                      <
>     VRB    - VARIABLE WIND DIRECTION                     <
>                                                          <
>>>>>>>>>>>>>>>>>>>>>>>>>>>> KEY <<<<<<<<<<<<<<<<<<<<<<<<<<<




USA.gov is the U.S. government's official web portal to all federal, state and local government web resources and services.